Hourly Data Report for April 10, 2017

All times are specified in Local Standard Time (LST). Add 1 hour to adjust for Daylight Saving Time where and when it is observed.

TORONTO CITY
ONTARIO

43°40'00.000" N
79°24'00.000" W
112.50 m
6158355
71508
XTO

Download Data

Hourly Data (April 2017)
Hourly Data Report for April 10, 2017
TIME Temp Definition
°C
Dew Point Definition
°C
Rel Hum Definition
%
Wind Dir Definition
10's deg

Wind Spd Definition
km/h
Visibility Definition
km
Stn Press Definition
kPa
Hmdx Definition


Wind Chill Definition


Weather Definition


00:00 12.7 1.9 48 LegendMM LegendMM   99.96     LegendNANA
01:00 14.7 1.1 39 LegendMM LegendMM   99.94     LegendNANA
02:00 14.7 1.1 40 LegendMM LegendMM   99.90     LegendNANA
03:00 12.0 1.5 49 LegendMM LegendMM   99.85     LegendNANA
04:00 14.4 0.2 38 LegendMM LegendMM   99.79     LegendNANA
05:00 14.6 -0.4 36 LegendMM LegendMM   99.77     LegendNANA
06:00 13.7 0.2 39 LegendMM LegendMM   99.77     LegendNANA
07:00 13.8 0.2 39 LegendMM LegendMM   99.80     LegendNANA
08:00 15.0 0.8 38 LegendMM LegendMM   99.85     LegendNANA
09:00 16.0 1.0 36 LegendMM LegendMM   99.86     LegendNANA
10:00 17.3 3.0 38 LegendMM LegendMM   99.82     LegendNANA
11:00 17.9 3.7 39 LegendMM LegendMM   99.83     LegendNANA
12:00 18.9 6.0 43 LegendMM LegendMM   99.83     LegendNANA
13:00 20.1 6.7 42 LegendMM LegendMM   99.75     LegendNANA
14:00 21.3 7.8 42 LegendMM LegendMM   99.81     LegendNANA
15:00 16.4 11.3 72 LegendMM LegendMM   99.66     LegendNANA
16:00 18.5 10.7 61 LegendMM LegendMM   99.91     LegendNANA
17:00 20.2 10.4 53 LegendMM LegendMM   99.93     LegendNANA
18:00 21.1 9.6 48 LegendMM LegendMM   99.96     LegendNANA
19:00 20.5 9.9 51 LegendMM LegendMM   99.96     LegendNANA
20:00 19.7 10.0 54 LegendMM LegendMM   100.01     LegendNANA
21:00 18.7 10.2 58 LegendMM LegendMM   100.03     LegendNANA
22:00 14.9 11.9 82 LegendMM LegendMM   100.09     LegendNANA
23:00 14.6 12.1 85 LegendMM LegendMM   100.12     LegendNANA

Notes on Data Quality.

Legend

  • E = Estimated
  • M = Missing
  • NA = Not Available
Date modified: